UFO 11 (USA 174)

Last updated on Sat Apr 13 2024 01:02:36 GMT+0100 (British Summer Time)

1 28117U 03057A 24103.39236517 -.00000110 00000+0 00000+0 0 9991 2 28117 7.9657 36.9184 0003121 0.7146 20.0768 1.00272421 74475
UTC large
Height (km)
Speed (km/s)
/
Latitude / Longitude
Inclination (degrees)
Orbital Period (minutes)
Azimuth
Elevation
Range (km)
Doppler Factor

Next 0 passes for location: London (51.5072 / 0.1276)

Sorry there are no passes over London.